Radiation Dose at Monitoring Post of Fukushima Daini Nuclear Power Station
Date,Time,MP-1(microSv/h),MP-2(microSv/h),MP-3(microSv/h),MP-4(microSv/h),MP-5(microSv/h),MP-6(microSv/h),MP-7(microSv/h),Wind Direction,Wind Velocity(m/s),Rain
2017/06/04,00:00,0.374,0.223,0.381,0.350,0.324,0.185,0.120,northwest,1.5,No
2017/06/04,00:10,0.370,0.224,0.381,0.352,0.322,0.184,0.119,northwest,1.9,No
2017/06/04,00:20,0.371,0.224,0.381,0.349,0.325,0.185,0.121,west-northwest,4.2,No
2017/06/04,00:30,0.370,0.223,0.381,0.351,0.323,0.185,0.120,northwest,2.9,No
2017/06/04,00:40,0.370,0.222,0.380,0.350,0.323,0.185,0.120,northwest,3.8,No
2017/06/04,00:50,0.372,0.223,0.378,0.352,0.325,0.185,0.120,west-northwest,4.3,No
2017/06/04,01:00,0.369,0.223,0.382,0.352,0.322,0.186,0.119,northwest,6.4,No
2017/06/04,01:10,0.372,0.222,0.378,0.351,0.323,0.185,0.119,north-northwest,5.0,No
2017/06/04,01:20,0.369,0.224,0.381,0.354,0.323,0.185,0.120,north-northwest,3.2,No
2017/06/04,01:30,0.371,0.224,0.382,0.350,0.323,0.185,0.119,northwest,3.8,No
2017/06/04,01:40,0.370,0.223,0.380,0.353,0.324,0.185,0.119,west-northwest,3.4,No
2017/06/04,01:50,0.371,0.223,0.380,0.350,0.322,0.186,0.119,northwest,4.4,No
2017/06/04,02:00,0.370,0.223,0.380,0.352,0.325,0.185,0.119,north-northwest,4.5,No
2017/06/04,02:10,0.372,0.224,0.381,0.352,0.323,0.185,0.120,north-northwest,1.6,No
2017/06/04,02:20,0.370,0.223,0.380,0.350,0.324,0.185,0.119,north-northwest,2.8,No
2017/06/04,02:30,0.370,0.223,0.381,0.353,0.324,0.185,0.120,northwest,2.5,No
2017/06/04,02:40,0.372,0.223,0.381,0.350,0.321,0.184,0.120,northwest,2.7,No
2017/06/04,02:50,0.371,0.223,0.380,0.352,0.325,0.187,0.119,northwest,3.5,No
2017/06/04,03:00,0.373,0.223,0.382,0.350,0.324,0.185,0.120,west-northwest,2.2,No
2017/06/04,03:10,0.371,0.223,0.379,0.351,0.324,0.186,0.120,north-northwest,2.8,No
2017/06/04,03:20,0.371,0.223,0.382,0.351,0.325,0.186,0.119,north,3.6,No
2017/06/04,03:30,0.371,0.223,0.381,0.350,0.323,0.185,0.119,north-northwest,4.5,No
2017/06/04,03:40,0.371,0.224,0.381,0.353,0.324,0.186,0.120,northwest,5.2,No
2017/06/04,03:50,0.371,0.224,0.381,0.350,0.323,0.186,0.119,northwest,7.2,No
2017/06/04,04:00,0.369,0.224,0.379,0.352,0.324,0.185,0.121,north-northwest,7.2,No
2017/06/04,04:10,0.371,0.223,0.383,0.352,0.324,0.186,0.120,north-northwest,10.1,No
2017/06/04,04:20,0.369,0.224,0.380,0.352,0.322,0.185,0.120,northwest,6.3,No
2017/06/04,04:30,0.372,0.223,0.381,0.352,0.324,0.184,0.119,northwest,6.2,No
2017/06/04,04:40,0.370,0.224,0.382,0.349,0.322,0.184,0.120,northwest,4.0,No
2017/06/04,04:50,0.371,0.223,0.380,0.353,0.324,0.185,0.120,west-northwest,3.7,No
2017/06/04,05:00,0.371,0.222,0.383,0.350,0.322,0.185,0.119,northwest,4.5,No
2017/06/04,05:10,0.370,0.223,0.380,0.351,0.324,0.186,0.120,north-northwest,3.5,No
2017/06/04,05:20,0.371,0.223,0.383,0.350,0.322,0.184,0.119,north,3.1,No
2017/06/04,05:30,0.370,0.222,0.380,0.352,0.323,0.186,0.120,west-northwest,0.6,No
2017/06/04,05:40,0.372,0.223,0.381,0.350,0.322,0.184,0.119,northwest,1.6,No
2017/06/04,05:50,0.370,0.222,0.381,0.350,0.322,0.184,0.119,northwest,1.6,No
2017/06/04,06:00,0.372,0.223,0.380,0.350,0.322,0.184,0.120,north-northwest,2.8,No
2017/06/04,06:10,0.370,0.222,0.381,0.353,0.322,0.184,0.120,northwest,3.0,No
2017/06/04,06:20,0.372,0.223,0.379,0.350,0.322,0.185,0.119,north,2.2,No
2017/06/04,06:30,0.369,0.222,0.381,0.350,0.323,0.186,0.120,north,2.4,No
2017/06/04,06:40,0.372,0.222,0.379,0.351,0.322,0.184,0.119,north,1.3,No
2017/06/04,06:50,0.369,0.223,0.382,0.350,0.324,0.185,0.119,west-northwest,3.3,No
2017/06/04,07:00,0.369,0.222,0.378,0.349,0.322,0.184,0.119,west,3.8,No
2017/06/04,07:10,0.370,0.221,0.379,0.351,0.323,0.184,0.119,northwest,5.4,No
2017/06/04,07:20,0.369,0.223,0.382,0.348,0.322,0.185,0.118,west-northwest,5.3,No
2017/06/04,07:30,0.369,0.222,0.377,0.349,0.325,0.185,0.119,west-northwest,5.3,No
2017/06/04,07:40,0.369,0.221,0.377,0.351,0.321,0.185,0.120,northwest,4.2,No
2017/06/04,07:50,0.371,0.222,0.380,0.349,0.325,0.186,0.119,west-northwest,6.1,No
2017/06/04,08:00,0.368,0.223,0.377,0.352,0.322,0.185,0.119,northwest,5.7,No
2017/06/04,08:10,0.370,0.222,0.378,0.352,0.321,0.184,0.120,west-northwest,6.9,No
2017/06/04,08:20,0.370,0.224,0.382,0.348,0.323,0.186,0.119,northwest,3.8,No
2017/06/04,08:30,0.370,0.222,0.378,0.350,0.321,0.183,0.118,northwest,2.6,No
2017/06/04,08:40,0.372,0.222,0.382,0.350,0.324,0.185,0.118,northwest,4.1,No
2017/06/04,08:50,0.369,0.222,0.382,0.351,0.323,0.186,0.120,west,3.6,No
2017/06/04,09:00,0.369,0.224,0.379,0.348,0.319,0.184,0.120,north-northwest,4.2,No
2017/06/04,09:10,0.370,0.223,0.380,0.345,0.323,0.184,0.118,west,3.8,No
2017/06/04,09:20,0.368,0.222,0.382,0.348,0.322,0.184,0.119,west-northwest,5.3,No
2017/06/04,09:30,0.368,0.224,0.377,0.349,0.319,0.185,0.120,west-northwest,5.4,No
2017/06/04,09:40,0.372,0.223,0.382,0.353,0.322,0.185,0.120,west-northwest,6.9,No
2017/06/04,09:50,0.370,0.223,0.382,0.352,0.325,0.185,0.119,west-northwest,7.6,No
2017/06/04,10:00,0.368,0.222,0.377,0.350,0.322,0.185,0.119,west-northwest,8.4,No
2017/06/04,10:10,0.371,0.225,0.382,0.350,0.320,0.185,0.119,northwest,9.0,No
2017/06/04,10:20,0.371,0.224,0.383,0.348,0.322,0.184,0.120,west-northwest,8.6,No
2017/06/04,10:30,0.367,0.223,0.379,0.347,0.324,0.186,0.121,west-northwest,7.5,No
2017/06/04,10:40,0.372,0.224,0.377,0.351,0.322,0.186,0.120,west,8.7,No
2017/06/04,10:50,0.371,0.224,0.382,0.354,0.322,0.184,0.119,west-northwest,7.2,No
2017/06/04,11:00,0.369,0.225,0.382,0.353,0.326,0.186,0.120,west-northwest,9.8,No
2017/06/04,11:10,0.373,0.225,0.378,0.351,0.323,0.186,0.120,west-northwest,10.1,No
2017/06/04,11:20,0.372,0.224,0.383,0.350,0.320,0.185,0.119,west-northwest,10.4,No
2017/06/04,11:30,0.369,0.224,0.382,0.350,0.322,0.186,0.120,west-northwest,11.1,No
2017/06/04,11:40,0.370,0.222,0.381,0.349,0.326,0.186,0.120,west,11.0,No
2017/06/04,11:50,0.372,0.224,0.381,0.350,0.324,0.186,0.120,west,10.7,No
2017/06/04,12:00,0.370,0.226,0.376,0.349,0.321,0.185,0.119,west-northwest,9.3,No
2017/06/04,12:10,0.372,0.224,0.382,0.350,0.321,0.186,0.120,west,9.9,No
2017/06/04,12:20,0.374,0.223,0.384,0.350,0.325,0.185,0.121,west,9.2,No
2017/06/04,12:30,0.372,0.224,0.383,0.353,0.325,0.187,0.120,west-northwest,9.4,No
2017/06/04,12:40,0.369,0.224,0.381,0.354,0.323,0.187,0.120,west,9.2,No
2017/06/04,12:50,0.371,0.225,0.378,0.356,0.323,0.185,0.119,west,13.2,No
2017/06/04,13:00,0.373,0.223,0.378,0.356,0.323,0.186,0.120,west-northwest,9.3,No
2017/06/04,13:10,0.369,0.224,0.379,0.353,0.322,0.187,0.119,west-northwest,8.6,No
2017/06/04,13:20,0.370,0.224,0.380,0.354,0.322,0.186,0.120,west-northwest,10.4,No
2017/06/04,13:30,0.372,0.224,0.382,0.352,0.322,0.185,0.120,west-northwest,8.2,No
2017/06/04,13:40,0.372,0.223,0.385,0.351,0.322,0.186,0.121,west-northwest,9.6,No
2017/06/04,13:50,0.370,0.224,0.385,0.352,0.322,0.188,0.120,west-northwest,10.7,No
2017/06/04,14:00,0.373,0.226,0.382,0.350,0.326,0.186,0.120,west-northwest,8.9,No
2017/06/04,14:10,0.372,0.224,0.380,0.350,0.327,0.186,0.120,west-northwest,7.5,No
2017/06/04,14:20,0.369,0.224,0.382,0.351,0.326,0.186,0.121,west,9.2,No
2017/06/04,14:30,0.375,0.226,0.386,0.351,0.325,0.187,0.120,west-northwest,10.4,No
2017/06/04,14:40,0.373,0.225,0.386,0.356,0.323,0.187,0.119,west-northwest,7.3,No
2017/06/04,14:50,0.371,0.224,0.384,0.356,0.321,0.188,0.121,west,8.7,No
2017/06/04,15:00,0.376,0.225,0.382,0.354,0.322,0.186,0.122,west-northwest,7.0,No
2017/06/04,15:10,0.374,0.226,0.380,0.357,0.322,0.186,0.120,west,10.4,No
2017/06/04,15:20,0.372,0.225,0.382,0.359,0.322,0.186,0.120,west-northwest,8.5,No
2017/06/04,15:30,0.375,0.225,0.389,0.353,0.322,0.186,0.121,west-northwest,6.5,No
2017/06/04,15:40,0.373,0.226,0.386,0.357,0.327,0.186,0.121,west,7.2,No
2017/06/04,15:50,0.375,0.225,0.383,0.357,0.327,0.187,0.120,west-northwest,6.5,No
2017/06/04,16:00,0.375,0.225,0.384,0.352,0.324,0.186,0.121,west-northwest,7.4,No
2017/06/04,16:10,0.373,0.225,0.386,0.357,0.323,0.185,0.121,west-northwest,6.8,No
2017/06/04,16:20,0.373,0.224,0.384,0.356,0.321,0.186,0.120,west-northwest,8.9,No
2017/06/04,16:30,0.374,0.227,0.387,0.356,0.326,0.186,0.122,west-northwest,8.1,No
2017/06/04,16:40,0.372,0.224,0.386,0.358,0.327,0.186,0.121,northwest,7.5,No
2017/06/04,16:50,0.375,0.227,0.388,0.354,0.324,0.187,0.121,west,4.5,No
2017/06/04,17:00,0.372,0.225,0.386,0.359,0.324,0.188,0.121,west,7.2,No
2017/06/04,17:10,0.376,0.227,0.387,0.355,0.327,0.187,0.121,west-northwest,6.9,No
2017/06/04,17:20,0.373,0.225,0.387,0.357,0.325,0.188,0.121,west-northwest,7.7,No
2017/06/04,17:30,0.373,0.225,0.385,0.355,0.322,0.186,0.122,west-northwest,6.4,No
2017/06/04,17:40,0.375,0.225,0.386,0.357,0.325,0.188,0.121,west-northwest,5.1,No
2017/06/04,17:50,0.373,0.226,0.383,0.357,0.327,0.187,0.121,west,5.2,No
2017/06/04,18:00,0.375,0.226,0.388,0.356,0.324,0.187,0.120,west-northwest,4.5,No
2017/06/04,18:10,0.373,0.227,0.384,0.357,0.326,0.187,0.121,west-northwest,3.3,No
2017/06/04,18:20,0.378,0.227,0.386,0.355,0.327,0.187,0.122,west-northwest,3.3,No
2017/06/04,18:30,0.374,0.226,0.386,0.358,0.326,0.187,0.121,west,3.1,No
2017/06/04,18:40,0.375,0.226,0.387,0.355,0.328,0.186,0.121,west,3.2,No
2017/06/04,18:50,0.374,0.225,0.386,0.357,0.327,0.186,0.122,west-northwest,2.8,No
2017/06/04,19:00,0.374,0.226,0.386,0.355,0.326,0.188,0.121,northwest,3.8,No
2017/06/04,19:10,0.374,0.226,0.386,0.357,0.326,0.187,0.122,west-northwest,4.5,No
2017/06/04,19:20,0.374,0.226,0.387,0.356,0.325,0.187,0.121,northwest,4.4,No
2017/06/04,19:30,0.374,0.226,0.386,0.357,0.327,0.186,0.122,west-northwest,4.8,No
2017/06/04,19:40,0.373,0.226,0.386,0.356,0.326,0.186,0.121,northwest,3.9,No
2017/06/04,19:50,0.375,0.226,0.384,0.356,0.326,0.187,0.122,northwest,3.4,No
2017/06/04,20:00,0.374,0.225,0.387,0.357,0.324,0.187,0.122,north-northwest,3.4,No
2017/06/04,20:10,0.372,0.225,0.385,0.355,0.327,0.187,0.121,northwest,3.1,No
2017/06/04,20:20,0.374,0.225,0.388,0.357,0.324,0.188,0.121,north-northwest,3.4,No
2017/06/04,20:30,0.373,0.225,0.384,0.356,0.326,0.187,0.121,northwest,3.6,No
2017/06/04,20:40,0.374,0.227,0.387,0.359,0.325,0.188,0.120,north-northwest,5.0,No
2017/06/04,20:50,0.373,0.226,0.385,0.354,0.327,0.187,0.122,north-northwest,6.5,No
2017/06/04,21:00,0.374,0.225,0.386,0.357,0.325,0.187,0.121,north-northwest,6.1,No
2017/06/04,21:10,0.374,0.226,0.387,0.355,0.326,0.186,0.121,northwest,5.5,No
2017/06/04,21:20,0.375,0.226,0.386,0.355,0.327,0.187,0.121,north-northwest,5.0,No
2017/06/04,21:30,0.375,0.227,0.386,0.357,0.325,0.188,0.122,north-northwest,5.2,No
2017/06/04,21:40,0.375,0.226,0.386,0.355,0.328,0.187,0.122,north-northwest,4.2,No
2017/06/04,21:50,0.374,0.226,0.386,0.356,0.325,0.187,0.121,north-northwest,4.3,No
2017/06/04,22:00,0.375,0.226,0.385,0.355,0.325,0.188,0.122,northwest,5.1,No
2017/06/04,22:10,0.376,0.226,0.386,0.357,0.327,0.187,0.122,northwest,4.4,No
2017/06/04,22:20,0.374,0.227,0.386,0.356,0.326,0.187,0.121,west-northwest,5.6,No
2017/06/04,22:30,0.378,0.227,0.387,0.357,0.327,0.187,0.122,west-northwest,5.7,No
2017/06/04,22:40,0.375,0.226,0.388,0.357,0.326,0.187,0.121,west-northwest,6.3,No
2017/06/04,22:50,0.376,0.226,0.386,0.356,0.325,0.188,0.121,west-northwest,7.9,No
2017/06/04,23:00,0.375,0.227,0.387,0.357,0.326,0.187,0.122,west-northwest,6.2,No
2017/06/04,23:10,0.374,0.225,0.386,0.357,0.323,0.187,0.122,west-northwest,7.6,No
2017/06/04,23:20,0.377,0.225,0.387,0.357,0.327,0.187,0.121,west-northwest,8.2,No
2017/06/04,23:30,0.374,0.226,0.388,0.358,0.325,0.186,0.121,west-northwest,8.5,No
2017/06/04,23:40,0.378,0.225,0.385,0.354,0.325,0.186,0.121,west-northwest,8.3,No
2017/06/04,23:50,0.374,0.226,0.387,0.359,0.326,0.187,0.122,west-northwest,8.0,No
